Tracking 35237 objects as of 6-Sep-2026
HD Live streaming from Space Station
objects crossing your sky now

LEMUR 2 SCHMIDTFALL


LEMUR 2 SCHMIDTFALL is no longer on orbit
LEMUR 2 SCHMIDTFALL is classified as:


NORAD ID: 46315
Int'l Code: 2020-061AV
Launch date: September 3, 2020
Source: United States (US)
Launch site: FRENCH GUIANA (FRGUI)
Decay date: 2023-12-08
Your satellite tracking list
Your tracking list is empty




NASA's NSSDC Master Catalog

Two Line Element Set (TLE):
1 46315U 20061AV  23339.23716134  .05562781  24320-5  18433-2 0  9996
2 46315  97.3637  63.0710 0008065 285.5640  74.4761 16.25822130181012
Source of the keplerian elements: AFSPC